"Pseudo-MPEC" for P21Vnof

Created 2024 Jun 13 15:22:09 UT using Find_Orb

Click here for an explanation of pseudo-MPECs

 
 Astrometry: 
     P21Vnof* C2024 06 09NetS,)e.#'o1vUbX;icyw9?DY\JlyXAstrometry8,uqLyxA0uvLF52
     P21Vnof  C2024 06 09-8;qkldG2.cEDh8bAJTMBPEn)C5me?W5wI'ap9I49m+UCUcpw9oEF52
     P21Vnof  C2024 06 09v94i1y/7Wx4Z%OPsxd2kf=cLd4#W)Hredacted;TB6w.5,EF^4ZdF52
     P21Vnof  C2024 06 09c17bO#-p@.3FLGI)QK7Ma5[Pu[wZI1xfv5(L86v2x/XJW'-.RE5mF52
     P21Vnof KC2024 06 10ZqCU,t5U,3A(J.::*L8:^qeIYclickqHnd(?b8%\MZh;VK=ZY2NdH21
     P21Vnof KC2024 06 108@$w\Ob_b4b0Rj*:\/wdD?%jv4J.bhG(FDdO`#kNe!'0_uloLV9FH21
     P21Vnof KC2024 06 105m6f':ti\uq(s514lbXXCB=?4fEEYkZL\F-Puv3JGox6'2)]Na;rH21
     P21Vnof KC2024 06 10)3kqy63\Qhere_QmHC[+k+)'f;0IiK?;.,,Z_wPrY[XQ3%ymH5xmH21
     P21Vnof KC2024 06 11t[O`v9c@?\[MhBaN?8FRsX)`7\T:q,-Eh6+PI^o+tvN^5PAI5JdLH21
     P21Vnof KC2024 06 11`rf2$NWFd=?nf#cKQ:yGRU\(2#+G'oMBAnTBeF`(?UHwrtN2Mvd)H21
     P21Vnof KC2024 06 112Foj,pKUCmwk!w3gwNI=)r:!lB4sRV+SKO_An?Hk0IBDj@r:7U2QH21
     P21Vnof KC2024 06 12VXMD+lQbQ*3CUZfor7t(]*,%(vyTj6/VA@hot;o\FSoP$`hRi%]OH21
     P21Vnof KC2024 06 12^?%^NpN7JWosvihEKhytnOyTq+wPBL5b,MjU'(%9wRi@t4Ebg@V=H21
     P21Vnof KC2024 06 13seh$b?Gi.cu[SQ64YpM1+w+Q9rKpiD[2wQ#f_f;tsld.Z577,Bh7H21
     P21Vnof KC2024 06 13M'cxQSvfeydpV*/w)plGXr\ncs`akexplanation3BTftab`;$vrH21

Station data:
(F52) Pan-STARRS 2, Haleakala  (N20.707382 W156.255910)  US/Hawaii.
   Observers J. Bulger, T. Dukes, T. Lowe, A. Schultz, M. Willman. Measurers
   K. Chambers, S. Chastel, T. de Boer, L. Denneau, J. Fairlamb, H.
   Flewelling, M. Huber, C.-C. Lin, E. Magnier, Y. Ramanjooloo, R. Wainscoat,
   R. Weryk. 1.8-m Ritchey-Chrétien + CCD.
(H21) Astronomical Research Observatory, Westfield  (N39.483054 W87.968270)
   US/Illinois.  Observer R. Holmes. Measurers S. Foglia, L. Buzzi, T.
   Linder, R. Holmes. 0.76-m f/3.0 astrograph + CCD0.81-m f/4.0 astrograph +
   CCD0.61-m f/4.5 astrograph + CCD0.40-m f/5.32 astrograph + CCD.

Orbital elements:  P21Vnof
   Perihelion 2024 Jul 6.90290 +/- 2.99 TT = 21:40:10 (JD 2460498.40290)
Epoch 2024 Jun 13.0 TT = JDT 2460474.5   Earth MOID: 0.6318      AutoNEOCP
M 354.62458360 +/- 0.8              (J2000 ecliptic)
n   0.22488550 +/- 0.0085           Peri.  148.99613 +/- 2.0
a   2.67810995 +/- 0.0675           Node   144.01618 +/- 0.47
e   0.3923981 +/- 0.0121            Incl.   16.23695 +/- 0.06
P   4.38                   H 19.01  G  0.15   U  9.5
q 1.62722445 +/- 0.00873    Q 3.72899544 +/- 0.126
From 15 observations 2024 June 9-13; mean residual 0".12
Residuals in arcseconds: 
240609 F52  .06+  .15+    240610 H21  .23-  .14+    240611 H21  .04-  .01+    
240609 F52  .08+  .03+    240610 H21  .05-  .04+    240612 H21  .01+  .05+    
240609 F52  .06-  .13-    240610 H21  .16-  .04+    240612 H21  .35+  .10+    
240609 F52  .04-  .05-    240611 H21  .06-  .18-    240613 H21  .03+  .03-    
240610 H21  .12-  .16-    240611 H21  .17+  .03-    240613 H21  .18-  .00     

Ephemerides (geocentric):
Date (UTC) HH   RA             Dec           delta  r     elong  mag " sig PA
---- --------  ------------   ------------  ------ ------ -----  --- --------
2024 06 13 15  20 16 34.404   +04 45 36.92  .78724 1.6390 130.3 20.8 .200   6
2024 06 13 16  20 16 36.031   +04 45 33.08  .78697 1.6390 130.4 20.8 .216   5
2024 06 13 17  20 16 37.656   +04 45 29.20  .78671 1.6389 130.4 20.8 .232   5
2024 06 13 18  20 16 39.277   +04 45 25.27  .78645 1.6389 130.4 20.8 .248   5
2024 06 13 19  20 16 40.896   +04 45 21.30  .78618 1.6389 130.5 20.8 .265   4
2024 06 13 20  20 16 42.511   +04 45 17.27  .78592 1.6388 130.5 20.8 .282   4
2024 06 13 21  20 16 44.124   +04 45 13.20  .78565 1.6388 130.5 20.8 .300   4
2024 06 13 22  20 16 45.733   +04 45 09.08  .78539 1.6387 130.5 20.8 .317   4
2024 06 13 23  20 16 47.340   +04 45 04.91  .78513 1.6387 130.6 20.8 .335   3
2024 06 14 00  20 16 48.943   +04 45 00.69  .78486 1.6387 130.6 20.8 .354   3
2024 06 14 01  20 16 50.544   +04 44 56.43  .78460 1.6386 130.6 20.8 .373   3
2024 06 14 02  20 16 52.142   +04 44 52.12  .78434 1.6386 130.7 20.8 .392   3
2024 06 14 03  20 16 53.736   +04 44 47.76  .78407 1.6385 130.7 20.8 .411   3
2024 06 14 04  20 16 55.328   +04 44 43.35  .78381 1.6385 130.7 20.8 .431   3
2024 06 14 05  20 16 56.917   +04 44 38.89  .78355 1.6384 130.7 20.8 .451   3
2024 06 14 06  20 16 58.503   +04 44 34.38  .78329 1.6384 130.8 20.8 .471   2
2024 06 14 07  20 17 00.085   +04 44 29.83  .78303 1.6384 130.8 20.8 .492   2
2024 06 14 08  20 17 01.665   +04 44 25.23  .78276 1.6383 130.8 20.8 .513   2
2024 06 14 09  20 17 03.242   +04 44 20.58  .78250 1.6383 130.9 20.8 .534   2
2024 06 14 10  20 17 04.816   +04 44 15.88  .78224 1.6382 130.9 20.8 .556   2
2024 06 14 11  20 17 06.387   +04 44 11.13  .78198 1.6382 130.9 20.8 .578   2
2024 06 14 12  20 17 07.954   +04 44 06.33  .78172 1.6382 131.0 20.8 .600   2
2024 06 14 13  20 17 09.519   +04 44 01.49  .78146 1.6381 131.0 20.8 .623   2
2024 06 14 14  20 17 11.081   +04 43 56.59  .78120 1.6381 131.0 20.8 .646   2
2024 06 14 15  20 17 12.640   +04 43 51.65  .78094 1.6380 131.0 20.8 .670   2
2024 06 14 16  20 17 14.196   +04 43 46.66  .78068 1.6380 131.1 20.8 .693   2
2024 06 14 17  20 17 15.749   +04 43 41.62  .78041 1.6380 131.1 20.8 .718   2
2024 06 14 18  20 17 17.299   +04 43 36.53  .78015 1.6379 131.1 20.8 .742   2
2024 06 14 19  20 17 18.846   +04 43 31.39  .77989 1.6379 131.2 20.8 .767   2
2024 06 14 20  20 17 20.390   +04 43 26.21  .77963 1.6378 131.2 20.8 .792   2
2024 06 14 21  20 17 21.931   +04 43 20.97  .77938 1.6378 131.2 20.8 .817   2
2024 06 14 22  20 17 23.469   +04 43 15.69  .77912 1.6378 131.2 20.8 .843   2
2024 06 14 23  20 17 25.004   +04 43 10.35  .77886 1.6377 131.3 20.8 .869   2
2024 06 15 00  20 17 26.536   +04 43 04.97  .77860 1.6377 131.3 20.8 .896   2
2024 06 15 01  20 17 28.066   +04 42 59.54  .77834 1.6376 131.3 20.8 .923   2
2024 06 15 02  20 17 29.592   +04 42 54.06  .77808 1.6376 131.4 20.8 .950   2
2024 06 15 03  20 17 31.115   +04 42 48.53  .77782 1.6376 131.4 20.8 .978   2
2024 06 15 04  20 17 32.635   +04 42 42.95  .77756 1.6375 131.4 20.8 1.01   2
2024 06 15 05  20 17 34.152   +04 42 37.32  .77730 1.6375 131.5 20.8 1.03   2
2024 06 15 06  20 17 35.666   +04 42 31.64  .77705 1.6374 131.5 20.8 1.06   2
2024 06 15 07  20 17 37.178   +04 42 25.91  .77679 1.6374 131.5 20.8 1.09   2
2024 06 15 08  20 17 38.686   +04 42 20.13  .77653 1.6374 131.5 20.8 1.12   2
2024 06 15 09  20 17 40.191   +04 42 14.31  .77627 1.6373 131.6 20.8 1.15   2
2024 06 15 10  20 17 41.693   +04 42 08.43  .77602 1.6373 131.6 20.8 1.18   2
2024 06 15 11  20 17 43.193   +04 42 02.50  .77576 1.6373 131.6 20.8 1.21   2
2024 06 15 12  20 17 44.689   +04 41 56.53  .77550 1.6372 131.7 20.8 1.24   2
2024 06 15 13  20 17 46.182   +04 41 50.50  .77524 1.6372 131.7 20.8 1.27   2
2024 06 15 14  20 17 47.672   +04 41 44.43  .77499 1.6371 131.7 20.8 1.30   2